Theta_e
293 293 297 298 299 300 301 303 304 304 305 307 307 306 307 307 308 307 308 308 308 308 308 308 309 310 311 314 316 317 318 318 322 323 321 320 321 322 322 323 325 325 328 328
292 292 295 299 299 300 302 303 303 303 306 307 306 306 306 307 308 308 308 308 308 309 309 309 309 310 310 311 315 316 316 320 324 322 321 321 322 321 323 323 323 325 329 328
292 292 292 295 298 299 300 303 303 303 305 306 307 306 307 308 306 308 307 309 309 309 311 310 310 309 310 310 311 311 315 317 319 322 321 321 321 322 322 324 326 324 326 325
292 292 292 292 294 299 300 301 301 304 305 305 307 307 306 307 308 307 307 309 310 309 311 311 311 310 310 310 310 312 313 316 315 316 316 319 319 319 321 323 324 326 325 325
292 291 291 292 295 298 299 301 301 302 305 306 306 306 307 308 307 308 308 309 309 309 310 311 312 310 310 312 311 312 313 314 315 315 315 314 318 319 318 319 322 324 324 325
292 291 292 295 296 298 299 299 300 302 304 307 308 308 307 307 308 308 307 309 309 310 310 309 309 310 310 311 311 310 312 314 315 315 313 315 313 316 320 319 319 321 325 325
291 293 295 296 297 297 298 300 301 302 303 306 307 307 307 307 307 309 307 307 309 308 307 308 308 309 309 310 310 310 312 312 313 314 313 315 312 313 316 319 318 319 322 324
294 295 296 297 298 298 299 299 301 302 303 304 305 304 307 306 307 308 308 308 307 308 309 309 309 311 309 309 311 311 312 313 314 313 314 312 310 311 313 316 320 318 320 321
295 295 295 296 298 299 299 299 299 300 301 303 302 305 305 307 308 309 308 307 307 308 310 309 310 309 309 310 308 310 311 312 314 313 312 311 310 309 309 313 315 316 320 321
291 295 296 299 299 299 300 301 299 301 301 301 303 303 304 304 306 308 309 308 308 307 310 310 310 310 308 309 308 309 309 312 312 312 312 311 310 310 314 316 317 318 320 320
294 295 300 300 302 301 301 301 301 301 301 301 302 303 304 305 305 308 307 308 308 309 309 309 310 309 308 308 308 309 310 309 311 313 313 313 309 309 311 313 315 318 319 320
295 299 300 301 302 303 303 302 302 302 302 301 302 301 302 303 303 305 307 308 308 307 309 309 311 310 310 308 309 308 308 309 311 311 312 312 311 312 312 313 318 320 320 320
297 299 301 302 302 303 303 303 303 303 304 300 299 302 303 302 303 304 305 305 307 307 307 308 309 310 309 310 309 309 308 309 310 311 311 311 311 309 310 310 310 314 319 317
297 300 302 303 303 303 304 304 304 304 301 301 302 302 304 304 303 304 305 304 305 306 307 306 307 310 308 309 309 308 309 308 309 310 311 310 309 310 310 313 316 315 317 316
298 302 303 303 303 304 304 303 303 304 303 303 302 303 303 305 306 304 304 305 306 307 306 305 306 306 306 308 309 310 309 309 310 311 311 311 310 308 307 310 310 309 310 315
298 302 302 302 304 304 303 301 301 302 302 302 305 303 304 306 306 305 306 306 306 305 301 305 306 307 307 309 309 308 306 307 307 309 308 308 308 307 308 309 309 310 310 313
299 302 302 301 302 303 304 302 303 303 302 303 304 305 304 305 305 304 304 304 303 303 302 303 305 307 307 308 309 308 306 306 306 306 307 308 307 309 312 312 311 312 315 310
300 303 302 302 302 302 304 303 303 302 301 306 305 304 303 302 302 301 302 301 300 301 302 302 306 306 306 307 306 306 305 305 305 306 307 307 307 308 308 308 310 312 312 309
301 302 301 302 301 302 303 303 303 304 305 306 307 306 306 302 302 300 301 301 304 302 302 304 305 306 307 305 305 305 305 306 307 307 307 307 308 308 309 310 309 310 308 306
299 301 300 300 301 302 302 303 304 304 303 305 307 306 305 303 302 304 303 301 304 306 305 304 306 306 305 305 305 305 306 306 307 308 310 308 308 309 310 310 310 307 306 304
299 298 298 298 300 302 301 300 302 303 304 304 305 306 304 303 304 305 304 305 306 307 307 306 307 307 308 307 307 305 305 305 307 308 310 310 310 311 311 309 307 306 305 304
298 298 298 298 299 299 302 304 304 304 305 305 306 306 305 304 305 306 306 305 306 305 306 307 307 308 306 304 303 305 307 307 309 310 310 311 310 309 307 306 305 304 303 302
297 298 298 298 299 303 304 304 304 307 306 304 303 304 302 303 303 305 305 304 304 305 307 306 308 307 303 302 302 303 304 305 306 309 310 310 309 307 305 302 301 301 301 300
298 299 302 302 302 303 305 306 306 304 303 303 303 303 305 303 305 304 304 304 305 305 305 306 306 303 302 302 303 303 302 302 304 304 305 303 302 300 300 299 300 300 298 297
298 300 304 302 303 303 303 303 303 302 302 302 303 303 303 304 304 303 304 305 303 305 306 304 302 301 302 301 302 301 300 300 300 299 299 299 299 299 298 298 297 297 297 296
299 300 301 300 301 303 302 301 301 301 301 302 303 304 304 304 304 304 304 304 305 305 302 301 300 301 298 298 297 296 296 296 296 297 297 298 298 296 295 294 294 295 297 297
299 299 300 301 302 302 301 301 300 300 301 304 303 303 303 304 303 304 304 305 303 301 299 299 298 297 295 295 295 294 295 295 295 295 296 295 295 297 298 297 296 294 292 291
Wind_Speed
12 11 10 10 12 13 17 12 4 11 26 18 11 17 9 17 24 23 26 26 24 27 25 25 25 25 23 13 16 19 18 9 19 28 31 29 28 25 28 15 24 22 17 17
12 11 10 10 14 18 12 9 10 14 28 12 14 9 23 16 20 25 26 29 25 25 27 25 25 25 29 32 15 5 6 5 5 14 19 25 27 28 20 20 20 23 17 18
14 13 13 12 14 19 20 5 4 13 24 27 20 19 18 21 32 30 37 29 26 28 26 23 24 27 26 32 27 27 5 7 10 9 18 20 18 27 23 22 17 23 22 27
15 14 15 15 16 20 20 12 4 7 6 15 20 23 20 27 27 33 37 27 32 29 25 23 24 26 25 26 31 24 17 21 19 23 28 29 28 27 30 26 24 26 23 28
17 16 16 16 17 20 24 10 5 6 18 24 21 23 27 28 28 26 28 29 30 25 26 28 24 25 22 22 21 16 17 21 18 25 24 24 27 31 29 29 24 30 26 27
18 18 18 17 19 22 20 23 19 12 17 18 20 20 28 35 28 33 40 31 24 26 32 34 31 31 30 20 15 17 19 15 14 11 18 17 13 23 30 31 28 25 24 28
19 19 19 20 23 28 35 24 24 13 14 17 19 28 27 30 32 32 33 35 26 45 32 34 34 33 29 31 20 17 14 17 7 9 14 20 14 16 22 31 35 29 26 31
20 20 22 25 28 32 37 42 31 16 16 18 29 32 28 32 36 29 29 39 42 34 27 13 10 9 12 23 25 24 19 12 5 7 15 18 28 22 19 20 28 32 29 29
25 26 28 29 31 34 37 44 44 32 6 23 41 26 35 22 20 19 33 42 32 31 10 8 11 8 6 5 8 22 23 17 15 6 12 15 26 23 32 24 19 23 25 28
27 29 30 30 31 36 38 37 48 39 37 43 30 27 23 32 27 17 21 25 23 26 13 14 7 4 7 13 16 13 12 8 17 17 13 13 25 15 20 12 23 15 20 33
27 30 30 32 30 34 39 46 47 45 37 53 37 44 39 30 29 15 26 15 14 8 9 10 12 7 8 13 18 19 18 17 14 8 11 17 17 15 15 15 31 33 20 36
29 29 31 30 29 29 31 41 44 52 42 39 33 57 54 50 56 40 31 19 10 13 5 6 6 10 10 15 15 20 17 16 15 16 12 16 19 20 33 38 33 24 19 32
28 30 32 28 30 33 35 39 41 41 36 22 24 32 37 47 51 49 35 21 22 17 20 9 8 12 9 11 17 24 19 20 13 13 19 21 25 27 34 41 41 40 17 20
27 28 25 26 23 25 28 35 33 32 11 5 6 12 29 31 40 44 44 34 24 30 22 7 3 3 9 14 15 12 12 15 21 22 20 21 29 27 32 30 31 37 26 18
25 22 22 23 23 28 33 34 35 35 23 1 3 11 19 20 29 35 37 39 37 17 7 4 5 4 2 6 7 11 15 18 14 15 18 17 25 32 34 35 36 43 42 34
23 19 15 17 9 14 30 6 25 32 21 3 2 3 6 11 17 19 22 23 20 23 8 2 8 16 7 4 7 18 25 30 33 21 33 32 42 39 38 30 33 43 44 40
22 16 14 9 11 17 7 4 4 28 32 5 2 3 3 8 9 9 9 13 11 6 3 4 6 12 4 4 13 23 27 31 33 37 35 30 33 29 22 23 36 41 25 17
17 12 16 11 11 8 1 1 8 28 18 6 3 2 3 9 4 2 6 3 5 7 5 4 6 6 6 6 22 29 30 32 33 35 37 38 40 33 30 28 28 33 20 15
8 13 19 17 8 5 2 14 20 19 5 2 4 6 3 10 3 4 3 2 2 2 3 4 6 5 8 14 17 25 32 30 30 33 34 35 39 35 24 16 18 16 17 20
11 22 10 5 7 8 12 10 6 4 3 4 3 6 3 7 5 3 4 4 3 2 5 4 4 9 29 34 35 35 36 34 34 28 27 29 34 26 25 27 27 27 20 20
5 2 4 8 19 10 7 4 4 3 2 6 9 7 6 7 5 4 8 3 2 3 3 5 4 6 10 5 8 13 20 23 25 25 23 15 21 29 23 18 16 20 21 21
2 3 8 10 4 3 4 4 4 5 5 7 3 5 8 6 2 2 2 2 2 5 6 3 4 3 13 18 18 18 17 18 15 13 19 14 14 14 16 13 14 17 18 22
6 4 4 4 3 4 4 7 5 4 6 8 6 4 5 4 2 1 2 4 5 4 3 4 2 11 18 19 15 16 16 17 13 11 8 9 8 11 11 14 16 19 24 24
4 5 6 4 5 4 4 5 5 5 8 14 13 4 3 4 4 3 4 4 3 3 4 5 6 18 19 17 10 10 10 11 9 13 19 19 19 20 20 21 22 20 26 27
5 4 3 5 3 3 6 6 10 12 15 15 9 4 3 2 2 3 4 2 4 4 2 3 12 19 17 13 9 7 6 8 16 21 26 28 28 26 23 19 21 26 29 29
3 5 3 3 4 1 5 9 9 11 14 11 3 4 3 4 3 4 6 3 3 3 3 11 15 16 15 11 7 7 10 14 21 25 27 26 26 28 30 31 33 34 32 28
3 2 1 7 5 7 9 10 7 8 7 2 2 4 4 3 3 3 3 2 4 5 9 13 14 14 12 12 12 15 20 26 28 30 35 38 39 38 37 34 30 31 33 34
Wind_Direction
241 244 243 230 218 207 212 217 222 217 199 207 221 233 232 248 255 256 244 267 270 274 279 277 274 272 275 274 274 289 311 316 268 247 255 263 263 263 230 217 217 220 230 258
243 242 240 231 209 207 208 223 222 210 203 220 227 242 240 241 241 246 249 258 250 263 270 273 273 277 280 289 266 178 312 320 283 287 251 259 259 253 254 284 225 228 225 240
243 243 240 231 221 211 218 237 214 196 221 226 229 232 238 239 238 248 253 266 262 264 263 256 264 270 270 278 280 284 186 215 245 257 284 296 282 269 245 228 242 232 231 241
248 246 243 234 227 214 216 224 224 204 200 222 229 234 236 243 246 241 243 254 250 255 267 268 266 256 265 262 266 274 272 280 275 291 299 293 267 265 275 243 232 249 231 238
251 250 245 243 226 217 226 230 190 219 242 225 222 236 236 245 243 246 243 237 247 255 259 254 260 267 267 278 291 295 284 271 297 287 277 287 295 285 272 270 259 248 250 247
254 253 253 247 233 223 233 234 241 243 237 240 242 221 235 243 248 246 248 256 255 245 248 258 269 268 276 285 296 291 300 279 283 274 297 318 305 263 273 272 269 238 260 254
256 257 258 253 243 232 235 231 226 231 244 243 243 243 237 243 245 253 256 257 257 258 270 269 273 278 261 269 271 270 257 261 245 272 276 264 268 255 276 271 268 268 243 241
258 264 266 255 249 242 236 236 225 227 246 240 242 249 254 255 247 246 256 254 256 274 279 247 265 254 260 254 252 251 241 265 252 238 267 285 280 268 269 275 273 260 268 271
263 271 278 262 251 243 240 236 233 231 250 230 238 248 247 252 254 261 252 251 258 261 264 247 221 230 250 266 264 218 229 221 243 252 267 273 269 272 280 295 297 282 270 256
272 276 278 264 258 246 240 239 230 229 241 249 241 232 242 252 258 259 261 253 246 252 252 249 270 233 215 253 255 246 250 236 235 238 244 254 263 274 300 275 267 281 290 269
279 284 279 270 259 248 236 237 230 223 237 249 237 240 248 245 249 249 261 255 240 234 231 237 240 240 232 248 248 250 250 242 236 235 247 257 264 254 237 261 291 283 285 325
286 281 281 264 251 243 237 237 234 231 230 251 249 239 237 239 241 253 256 244 218 210 201 223 237 240 261 248 259 249 249 244 250 230 246 252 267 297 295 299 303 300 308 302
290 288 284 264 251 250 248 242 240 233 231 249 245 234 238 239 238 241 245 249 229 222 226 249 234 236 238 238 239 257 255 265 262 278 261 261 271 280 276 285 297 301 271 288
293 295 280 279 267 251 234 232 236 235 213 228 262 257 235 248 231 235 233 247 247 242 215 223 245 228 245 238 250 251 252 255 255 260 250 258 264 266 271 282 282 305 264 248
297 289 286 294 285 260 228 231 239 233 203 219 245 251 248 233 231 229 229 232 232 219 211 196 209 243 232 281 280 258 248 254 254 263 262 268 274 283 284 281 287 294 295 292
294 284 265 300 282 169 169 160 209 204 196 168 242 266 226 207 209 221 228 224 230 217 206 208 235 225 233 232 233 249 248 252 258 268 269 266 270 278 283 278 286 285 280 278
302 264 231 237 181 170 178 201 220 206 193 226 168 194 177 208 196 193 207 228 252 267 278 235 259 263 311 257 262 269 268 269 276 278 279 269 267 263 269 278 293 292 271 225
293 237 207 205 203 195 198 225 162 164 190 227 167 108 167 172 142 136 182 144 163 196 203 214 233 252 212 249 253 263 272 269 267 269 265 267 275 271 271 279 287 291 214 207
258 224 195 184 193 169 119 162 154 184 257 223 193 177 164 174 141 117 112 161 258 230 225 215 211 228 228 253 266 267 267 261 263 269 267 261 261 259 259 266 252 260 183 180
153 162 169 190 178 165 136 145 191 215 241 251 237 117 128 175 169 153 146 195 235 250 226 218 238 254 257 264 263 269 272 271 269 267 277 257 264 256 248 247 242 219 199 180
236 163 150 162 153 145 171 178 191 171 233 223 230 175 140 182 173 166 202 186 221 251 182 199 238 255 264 340 266 286 292 289 286 249 271 258 260 254 237 203 190 190 185 173
279 151 121 145 166 156 186 185 182 210 220 156 196 109 120 130 176 178 168 241 217 254 139 244 256 307 4 344 337 329 320 308 293 254 247 237 245 221 189 165 174 156 154 165
219 182 160 180 162 202 219 180 197 198 154 163 149 114 109 126 156 112 159 221 241 290 229 245 316 4 351 341 342 327 320 324 318 269 239 207 203 196 180 153 154 156 146 150
218 195 179 224 171 222 214 264 175 97 126 146 136 106 146 134 179 173 215 217 268 250 245 258 10 346 347 348 2 9 13 20 67 96 117 122 131 127 139 141 143 144 134 135
223 240 201 198 140 116 100 96 104 113 132 138 125 99 139 152 154 221 225 185 244 232 311 11 343 333 350 17 12 18 35 75 93 112 118 124 128 127 120 125 133 134 127 125
217 241 177 119 111 155 109 116 109 135 150 154 161 161 163 193 198 198 211 238 244 45 6 351 346 13 18 12 27 54 99 105 110 114 116 120 119 116 116 120 118 114 114 122
247 193 246 181 191 159 146 151 156 160 153 212 180 185 190 151 208 214 218 343 63 38 44 28 27 24 39 52 71 83 101 105 108 113 115 113 116 119 115 110 114 119 119 119